Miscellaneous Local Product
Issued by NWS Hastings, NE

Home | Current Version | Previous Version | Text Only | Print | Product List | Glossary On
Versions: 1 2 3 4 5 6 7 8 9 10 11 12 13 14 15 16 17 18 19 20 21 22 23 24 25 26 27 28 29 30 31 32 33 34 35 36 37 38 39 40 41 42 43 44 45 46 47 48 49 50
000
AXUS43 KGID 210302
MISGRI

GID CWA HOURLY WEATHER ROUNDUP
NATIONAL WEATHER SERVICE HASTINGS NE
1000 PM CDT SUN APR 20 2014

NOTE: "FAIR" INDICATES FEW OR NO CLOUDS BELOW 12,000 FEET WITH NO
SIGNIFICANT WEATHER AND/OR OBSTRUCTIONS TO VISIBILITY.

...SOUTH CENTRAL NEBRASKA...

CITY           SKY/WX    TMP DP  RH WIND       PRES   REMARKS
GRAND ISLAND   CLOUDY    66  54  65 S14       29.93S
HASTINGS       CLOUDY    65  53  65 S9        29.94S
KEARNEY        CLOUDY    63  54  72 S8        29.95R
ORD            MOCLDY    67  51  56 S10       29.90R
YORK           CLOUDY    64  55  72 S12       29.96R
AURORA         CLOUDY    67  54  62 S12       29.94R
LEXINGTON      CLOUDY    60  52  74 S6        29.95R
HOLDREGE       CLOUDY    62  53  72 S8        29.95R
HEBRON         CLOUDY    63  52  66 S8        29.97R

...NEBRASKA PANHANDLE...

CITY           SKY/WX    TMP DP  RH WIND       PRES   REMARKS
CHADRON        CLEAR     54  33  45 NE7       30.06R
ALLIANCE       CLEAR     54  37  52 N13       30.03R
SCOTTSBLUFF    CLEAR     59  38  45 NE17      30.03R
SIDNEY         PTCLDY    62  30  29 NE12      30.03R

...WESTERN AND NORTH CENTRAL NEBRASKA...

CITY           SKY/WX    TMP DP  RH WIND       PRES   REMARKS
VALENTINE      PTCLDY    66  38  35 N22G31    29.93R
AINSWORTH      MOCLDY    64  52  65 CALM      29.94R
ONEILL         PTCLDY    65  47  53 S6        29.90R
BROKEN BOW     PTCLDY    54  47  77 CALM      29.92R
IMPERIAL       PTCLDY    59  44  57 CALM      29.95R
NORTH PLATTE   PTCLDY    55  46  71 CALM      29.93R
MCCOOK         CLOUDY    61  52  72 S8        29.96R

...EASTERN NEBRASKA...

CITY           SKY/WX    TMP DP  RH WIND       PRES   REMARKS
NORFOLK        CLOUDY    65  53  65 S12       29.92R
SO SIOUX CITY  CLOUDY    66  54  65 S9        29.91R
TEKAMAH        CLOUDY    66  54  65 SE12      29.93R
COLUMBUS       CLOUDY    66  54  63 S17       29.94S
ALBION         CLOUDY    63  52  66 S5        29.93R
OMAHA EPPLEY   LGT RAIN  64  57  78 S8        29.96R
OFFUTT AFB     LGT RAIN  62  62  99 SE7       29.97R
MILLARD        CLOUDY    63  57  80 CALM      29.95R
LINCOLN        CLOUDY    64  58  80 S6        29.97R
NEBRASKA CITY  MOCLDY    61  61  99 S7        29.99R
BEATRICE       MOCLDY    66  53  63 S8        29.98R
FALLS CITY     NOT AVBL

...NORTHERN KANSAS...

CITY           SKY/WX    TMP DP  RH WIND       PRES   REMARKS
GOODLAND       PTCLDY    55  44  66 CALM      29.98R
HILL CITY      LGT RAIN  59  53  80 SE10      29.96S
SMITH CENTER   CLOUDY    57  55  94 S9        29.96S
BELOIT         CLOUDY    66  55  68 SE7       29.96F
HAYS           CLOUDY    66  54  63 S15       29.95R
RUSSELL        CLOUDY    66  56  70 S15       29.93R
CONCORDIA      CLOUDY    64  56  75 S6        29.99R
SALINA         MOCLDY    63  56  78 SE7       29.97R
TOPEKA         LGT RAIN  66  56  70 CALM      30.01R



USA.gov is the U.S. government's official web portal to all federal, state and local government web resources and services.